{"data":{"norad_id":65554,"epoch":"2026-09-19T11:54:54.871488Z","epoch_age_seconds":239336,"freshness":"STALE","line1":"1 65554U 25201E   26262.49646842  .00000883  00000+0  13100-3 0  9992","line2":"2 65554  49.9827 321.4949 0011015 281.2189  78.7511 14.84362028 55802","mean_motion":14.84362028,"eccentricity":0.0011015,"inclination_deg":49.9827,"raan_deg":321.4949,"arg_perigee_deg":281.2189,"mean_anomaly_deg":78.7511,"bstar":0.000131,"rev_number":5580,"period_min":97.011374101251,"perigee_km":607.88547209698,"apogee_km":623.29265061014,"semimajor_km":6993.7260613536,"source":"CELESTRAK","updated_at":"2026-09-21T09:00:15.425300Z"}}